Year,Month,Day,Hour,Minute,Value (Times are PST for windgust in km/hr)
2018,07,04,00,00,11.30
2018,07,04,00,01,11.30
2018,07,04,00,02,11.30
2018,07,04,00,03,12.90
2018,07,04,00,04,14.50
2018,07,04,00,05,14.50
2018,07,04,00,06,16.10
2018,07,04,00,07,14.50
2018,07,04,00,08,14.50
2018,07,04,00,09,16.10
2018,07,04,00,10,16.10
2018,07,04,00,11,16.10
2018,07,04,00,12,16.10
2018,07,04,00,13,16.10
2018,07,04,00,14,17.70
2018,07,04,00,15,17.70
2018,07,04,00,16,16.10
2018,07,04,00,17,16.10
2018,07,04,00,18,14.50
2018,07,04,00,19,14.50
2018,07,04,00,20,14.50
2018,07,04,00,21,12.90
2018,07,04,00,22,14.50
2018,07,04,00,23,14.50
2018,07,04,00,24,14.50
2018,07,04,00,25,12.90
2018,07,04,00,26,12.90
2018,07,04,00,27,12.90
2018,07,04,00,28,12.90
2018,07,04,00,29,11.30
2018,07,04,00,30,11.30
2018,07,04,00,31,11.30
2018,07,04,00,32,11.30
2018,07,04,00,33,12.90
2018,07,04,00,34,12.90
2018,07,04,00,35,12.90
2018,07,04,00,36,12.90
2018,07,04,00,37,12.90
2018,07,04,00,38,12.90
2018,07,04,00,39,12.90
2018,07,04,00,40,12.90
2018,07,04,00,41,12.90
2018,07,04,00,42,11.30
2018,07,04,00,43,11.30
2018,07,04,00,44,11.30
2018,07,04,00,45,9.60
2018,07,04,00,46,9.60
2018,07,04,00,47,8.10
2018,07,04,00,48,8.10
2018,07,04,00,49,8.10
2018,07,04,00,50,8.10
2018,07,04,00,51,8.10
2018,07,04,00,52,8.10
2018,07,04,00,53,8.10
2018,07,04,00,54,8.10
2018,07,04,00,55,8.10
2018,07,04,00,56,8.10
2018,07,04,00,57,9.60
2018,07,04,00,58,9.60
2018,07,04,00,59,8.10
2018,07,04,01,00,9.60
2018,07,04,01,01,8.10
2018,07,04,01,02,6.40
2018,07,04,01,03,6.40
2018,07,04,01,04,6.40
2018,07,04,01,05,6.40
2018,07,04,01,06,4.80
2018,07,04,01,07,4.80
2018,07,04,01,08,4.80
2018,07,04,01,09,3.20
2018,07,04,01,10,3.20
2018,07,04,01,11,3.20
2018,07,04,01,12,1.60
2018,07,04,01,13,1.60
2018,07,04,01,29,3.20
2018,07,04,01,30,6.40
2018,07,04,01,31,6.40
2018,07,04,01,32,4.80
2018,07,04,01,33,1.60
2018,07,04,01,37,4.80
2018,07,04,01,38,6.40
2018,07,04,01,39,4.80
2018,07,04,01,40,4.80
2018,07,04,01,41,4.80
2018,07,04,01,42,4.80
2018,07,04,01,43,4.80
2018,07,04,01,44,4.80
2018,07,04,01,45,4.80
2018,07,04,01,46,3.20
2018,07,04,01,47,3.20
2018,07,04,01,48,3.20
2018,07,04,01,49,3.20
2018,07,04,01,50,3.20
2018,07,04,01,51,4.80
2018,07,04,01,52,6.40
2018,07,04,01,53,6.40
2018,07,04,01,54,6.40
2018,07,04,01,55,8.10
2018,07,04,01,56,9.60
2018,07,04,01,57,9.60
2018,07,04,01,58,9.60
2018,07,04,01,59,9.60
2018,07,04,02,00,9.60
2018,07,04,02,01,9.60
2018,07,04,02,02,9.60
2018,07,04,02,03,9.60
2018,07,04,02,04,9.60
2018,07,04,02,05,9.60
2018,07,04,02,06,9.60
2018,07,04,02,07,9.60
2018,07,04,02,08,9.60
2018,07,04,02,09,9.60
2018,07,04,02,10,9.60
2018,07,04,02,11,9.60
2018,07,04,02,12,9.60
2018,07,04,02,13,9.60
2018,07,04,02,14,9.60
2018,07,04,02,15,9.60
2018,07,04,02,16,11.30
2018,07,04,02,17,11.30
2018,07,04,02,18,12.90
2018,07,04,02,19,12.90
2018,07,04,02,20,12.90
2018,07,04,02,21,12.90
2018,07,04,02,22,14.50
2018,07,04,02,23,12.90
2018,07,04,02,24,14.50
2018,07,04,02,25,14.50
2018,07,04,02,26,14.50
2018,07,04,02,27,14.50
2018,07,04,02,28,14.50
2018,07,04,02,29,14.50
2018,07,04,02,30,16.10
2018,07,04,02,31,16.10
2018,07,04,02,32,16.10
2018,07,04,02,33,16.10
2018,07,04,02,34,16.10
2018,07,04,02,35,16.10
2018,07,04,02,36,16.10
2018,07,04,02,37,16.10
2018,07,04,02,38,16.10
2018,07,04,02,39,16.10
2018,07,04,02,40,16.10
2018,07,04,02,41,16.10
2018,07,04,02,42,16.10
2018,07,04,02,43,16.10
2018,07,04,02,44,16.10
2018,07,04,02,45,16.10
2018,07,04,02,46,16.10
2018,07,04,02,47,16.10
2018,07,04,02,48,16.10
2018,07,04,02,49,16.10
2018,07,04,02,50,16.10
2018,07,04,02,51,16.10
2018,07,04,02,52,17.70
2018,07,04,02,53,17.70
2018,07,04,02,54,17.70
2018,07,04,02,55,17.70
2018,07,04,02,56,17.70
2018,07,04,02,57,17.70
2018,07,04,02,58,17.70
2018,07,04,02,59,17.70
2018,07,04,03,00,17.70
2018,07,04,03,01,16.10
2018,07,04,03,02,16.10
2018,07,04,03,03,14.50
2018,07,04,03,04,14.50
2018,07,04,03,05,12.90
2018,07,04,03,06,12.90
2018,07,04,03,07,12.90
2018,07,04,03,08,12.90
2018,07,04,03,09,11.30
2018,07,04,03,10,9.60
2018,07,04,03,11,9.60
2018,07,04,03,12,9.60
2018,07,04,03,13,9.60
2018,07,04,03,14,11.30
2018,07,04,03,15,11.30
2018,07,04,03,16,9.60
2018,07,04,03,17,9.60
2018,07,04,03,18,9.60
2018,07,04,03,19,11.30
2018,07,04,03,20,11.30
2018,07,04,03,21,11.30
2018,07,04,03,22,11.30
2018,07,04,03,23,11.30
2018,07,04,03,24,12.90
2018,07,04,03,25,11.30
2018,07,04,03,26,11.30
2018,07,04,03,27,11.30
2018,07,04,03,28,11.30
2018,07,04,03,29,11.30
2018,07,04,03,30,11.30
2018,07,04,03,31,11.30
2018,07,04,03,32,11.30
2018,07,04,03,33,11.30
2018,07,04,03,34,11.30
2018,07,04,03,35,12.90
2018,07,04,03,36,12.90
2018,07,04,03,37,12.90
2018,07,04,03,38,12.90
2018,07,04,03,39,12.90
2018,07,04,03,40,11.30
2018,07,04,03,41,11.30
2018,07,04,03,42,9.60
2018,07,04,03,43,9.60
2018,07,04,03,44,9.60
2018,07,04,03,45,11.30
2018,07,04,03,46,11.30
2018,07,04,03,47,11.30
2018,07,04,03,48,11.30
2018,07,04,03,49,11.30
2018,07,04,03,50,9.60
2018,07,04,03,51,9.60
2018,07,04,03,52,9.60
2018,07,04,03,53,8.10
2018,07,04,03,54,8.10
2018,07,04,03,55,8.10
2018,07,04,03,56,6.40
2018,07,04,03,57,6.40
2018,07,04,03,58,6.40
2018,07,04,03,59,6.40
2018,07,04,04,00,6.40
2018,07,04,04,01,6.40
2018,07,04,04,02,6.40
2018,07,04,04,03,4.80
2018,07,04,04,04,4.80
2018,07,04,04,05,4.80
2018,07,04,04,06,3.20
2018,07,04,04,07,1.60
2018,07,04,04,08,1.60
2018,07,04,04,09,1.60
2018,07,04,04,10,3.20
2018,07,04,04,11,3.20
2018,07,04,04,17,4.80
2018,07,04,04,18,4.80
2018,07,04,04,19,4.80
2018,07,04,04,20,6.40
2018,07,04,04,21,4.80
2018,07,04,04,22,4.80
2018,07,04,04,23,4.80
2018,07,04,04,24,4.80
2018,07,04,04,25,4.80
2018,07,04,04,26,3.20
2018,07,04,04,27,3.20
2018,07,04,04,28,4.80
2018,07,04,04,29,4.80
2018,07,04,04,30,4.80
2018,07,04,04,31,4.80
2018,07,04,04,32,6.40
2018,07,04,04,33,6.40
2018,07,04,04,34,6.40
2018,07,04,04,35,6.40
2018,07,04,04,36,8.10
2018,07,04,04,37,8.10
2018,07,04,04,38,8.10
2018,07,04,04,39,8.10
2018,07,04,04,40,9.60
2018,07,04,04,41,11.30
2018,07,04,04,42,11.30
2018,07,04,04,43,11.30
2018,07,04,04,44,11.30
2018,07,04,04,45,11.30
2018,07,04,04,46,11.30
2018,07,04,04,47,11.30
2018,07,04,04,48,11.30
2018,07,04,04,49,11.30
2018,07,04,04,50,9.60
2018,07,04,04,51,9.60
2018,07,04,04,52,9.60
2018,07,04,04,53,8.10
2018,07,04,04,54,8.10
2018,07,04,04,55,4.80
2018,07,04,04,56,4.80
2018,07,04,04,57,6.40
2018,07,04,04,58,6.40
2018,07,04,04,59,6.40
2018,07,04,05,00,8.10
2018,07,04,05,01,6.40
2018,07,04,05,02,4.80
2018,07,04,05,03,4.80
2018,07,04,05,04,4.80
2018,07,04,05,05,3.20
2018,07,04,05,06,3.20
2018,07,04,05,07,3.20
2018,07,04,05,08,3.20
2018,07,04,05,09,3.20
2018,07,04,05,10,3.20
2018,07,04,05,11,1.60
2018,07,04,05,12,1.60
2018,07,04,05,13,1.60
2018,07,04,05,14,1.60
2018,07,04,05,15,3.20
2018,07,04,05,16,4.80
2018,07,04,05,17,4.80
2018,07,04,05,18,4.80
2018,07,04,05,19,4.80
2018,07,04,05,20,4.80
2018,07,04,05,21,4.80
2018,07,04,05,22,3.20
2018,07,04,05,23,3.20
2018,07,04,05,24,3.20
2018,07,04,05,25,3.20
2018,07,04,05,26,3.20
2018,07,04,05,27,3.20
2018,07,04,05,28,3.20
2018,07,04,05,29,3.20
2018,07,04,05,30,3.20
2018,07,04,05,31,3.20
2018,07,04,05,32,3.20
2018,07,04,05,33,3.20
2018,07,04,05,34,3.20
2018,07,04,05,35,3.20
2018,07,04,05,36,4.80
2018,07,04,05,37,3.20
2018,07,04,05,38,3.20
2018,07,04,05,39,3.20
2018,07,04,05,40,1.60
2018,07,04,05,41,1.60
2018,07,04,05,42,3.20
2018,07,04,05,43,3.20
2018,07,04,05,44,4.80
2018,07,04,05,45,3.20
2018,07,04,05,46,4.80
2018,07,04,05,47,4.80
2018,07,04,05,48,4.80
2018,07,04,05,49,6.40
2018,07,04,05,50,6.40
2018,07,04,05,51,6.40
2018,07,04,05,52,6.40
2018,07,04,05,53,6.40
2018,07,04,05,54,6.40
2018,07,04,05,55,6.40
2018,07,04,05,56,8.10
2018,07,04,05,57,6.40
2018,07,04,05,58,6.40
2018,07,04,05,59,6.40
2018,07,04,06,00,6.40
2018,07,04,06,01,6.40
2018,07,04,06,02,6.40
2018,07,04,06,03,6.40
2018,07,04,06,04,8.10
2018,07,04,06,05,8.10
2018,07,04,06,06,8.10
2018,07,04,06,07,9.60
2018,07,04,06,08,9.60
2018,07,04,06,09,11.30
2018,07,04,06,10,11.30
2018,07,04,06,11,12.90
2018,07,04,06,12,12.90
2018,07,04,06,13,14.50
2018,07,04,06,14,14.50
2018,07,04,06,15,16.10
2018,07,04,06,16,16.10
2018,07,04,06,17,16.10
2018,07,04,06,18,14.50
2018,07,04,06,19,14.50
2018,07,04,06,20,12.90
2018,07,04,06,21,12.90
2018,07,04,06,22,12.90
2018,07,04,06,23,14.50
2018,07,04,06,24,12.90
2018,07,04,06,25,12.90
2018,07,04,06,26,12.90
2018,07,04,06,27,12.90
2018,07,04,06,28,12.90
2018,07,04,06,29,12.90
2018,07,04,06,30,11.30
2018,07,04,06,31,11.30
2018,07,04,06,32,9.60
2018,07,04,06,33,11.30
2018,07,04,06,34,8.10
2018,07,04,06,35,12.90
2018,07,04,06,36,11.30
2018,07,04,06,37,11.30
2018,07,04,06,38,11.30
2018,07,04,06,39,12.90
2018,07,04,06,40,11.30
2018,07,04,06,41,11.30
2018,07,04,06,42,12.90
2018,07,04,06,43,14.50
2018,07,04,06,44,16.10
2018,07,04,06,45,20.90
2018,07,04,06,46,22.50
2018,07,04,06,47,22.50
2018,07,04,06,48,17.70
2018,07,04,06,49,20.90
2018,07,04,06,50,24.20
2018,07,04,06,51,19.30
2018,07,04,06,52,25.70
2018,07,04,06,53,25.70
2018,07,04,06,54,27.40
2018,07,04,06,55,24.20
2018,07,04,06,56,25.70
2018,07,04,06,57,25.70
2018,07,04,06,58,24.20
2018,07,04,06,59,22.50
2018,07,04,07,00,25.70
2018,07,04,07,01,24.20
2018,07,04,07,02,24.20
2018,07,04,07,03,25.70
2018,07,04,07,04,25.70
2018,07,04,07,05,25.70
2018,07,04,07,06,25.70
2018,07,04,07,07,24.20
2018,07,04,07,08,24.20
2018,07,04,07,09,25.70
2018,07,04,07,10,27.40
2018,07,04,07,11,27.40
2018,07,04,07,12,29.00
2018,07,04,07,13,29.00
2018,07,04,07,14,27.40
2018,07,04,07,15,29.00
2018,07,04,07,16,29.00
2018,07,04,07,17,27.40
2018,07,04,07,18,30.60
2018,07,04,07,19,30.60
2018,07,04,07,20,29.00
2018,07,04,07,21,32.20
2018,07,04,07,22,30.60
2018,07,04,07,23,29.00
2018,07,04,07,24,30.60
2018,07,04,07,25,29.00
2018,07,04,07,26,30.60
2018,07,04,07,27,32.20
2018,07,04,07,28,30.60
2018,07,04,07,29,27.40
2018,07,04,07,30,30.60
2018,07,04,07,31,29.00
2018,07,04,07,32,29.00
2018,07,04,07,33,30.60
2018,07,04,07,34,32.20
2018,07,04,07,35,33.80
2018,07,04,07,36,27.40
2018,07,04,07,37,32.20
2018,07,04,07,38,33.80
2018,07,04,07,39,33.80
2018,07,04,07,40,32.20
2018,07,04,07,41,32.20
2018,07,04,07,42,30.60
2018,07,04,07,43,29.00
2018,07,04,07,44,30.60
2018,07,04,07,45,27.40
2018,07,04,07,46,29.00
2018,07,04,07,47,32.20
2018,07,04,07,48,29.00
2018,07,04,07,49,30.60
2018,07,04,07,50,30.60
2018,07,04,07,51,32.20
2018,07,04,07,52,30.60
2018,07,04,07,53,29.00
2018,07,04,07,54,30.60
2018,07,04,07,55,30.60
2018,07,04,07,56,30.60
2018,07,04,07,57,30.60
2018,07,04,07,58,29.00
2018,07,04,07,59,29.00
2018,07,04,08,00,29.00
2018,07,04,08,01,27.40
2018,07,04,08,02,29.00
2018,07,04,08,03,29.00
2018,07,04,08,04,29.00
2018,07,04,08,05,27.40
2018,07,04,08,06,29.00
2018,07,04,08,07,30.60
2018,07,04,08,08,30.60
2018,07,04,08,09,30.60
2018,07,04,08,10,30.60
2018,07,04,08,11,32.20
2018,07,04,08,12,32.20
2018,07,04,08,13,32.20
2018,07,04,08,14,30.60
2018,07,04,08,15,33.80
2018,07,04,08,16,29.00
2018,07,04,08,17,32.20
2018,07,04,08,18,32.20
2018,07,04,08,19,32.20
2018,07,04,08,20,32.20
2018,07,04,08,21,30.60
2018,07,04,08,22,32.20
2018,07,04,08,23,30.60
2018,07,04,08,24,33.80
2018,07,04,08,25,35.40
2018,07,04,08,26,33.80
2018,07,04,08,27,33.80
2018,07,04,08,28,32.20
2018,07,04,08,29,33.80
2018,07,04,08,30,33.80
2018,07,04,08,31,32.20
2018,07,04,08,32,33.80
2018,07,04,08,33,33.80
2018,07,04,08,34,33.80
2018,07,04,08,35,33.80
2018,07,04,08,36,33.80
2018,07,04,08,37,32.20
2018,07,04,08,38,35.40
2018,07,04,08,39,37.00
2018,07,04,08,40,37.00
2018,07,04,08,41,35.40
2018,07,04,08,42,35.40
2018,07,04,08,43,35.40
2018,07,04,08,44,35.40
2018,07,04,08,45,35.40
2018,07,04,08,46,33.80
2018,07,04,08,47,33.80
2018,07,04,08,48,35.40
2018,07,04,08,49,32.20
2018,07,04,08,50,30.60
2018,07,04,08,51,32.20
2018,07,04,08,52,29.00
2018,07,04,08,53,30.60
2018,07,04,08,54,32.20
2018,07,04,08,55,32.20
2018,07,04,08,56,32.20
2018,07,04,08,57,30.60
2018,07,04,08,58,32.20
2018,07,04,08,59,32.20
2018,07,04,09,00,29.00
2018,07,04,09,01,29.00
2018,07,04,09,02,30.60
2018,07,04,09,03,29.00
2018,07,04,09,04,29.00
2018,07,04,09,05,30.60
2018,07,04,09,06,30.60
2018,07,04,09,07,29.00
2018,07,04,09,08,29.00
2018,07,04,09,09,29.00
2018,07,04,09,10,30.60
2018,07,04,09,11,25.70
2018,07,04,09,12,27.40
2018,07,04,09,13,29.00
2018,07,04,09,14,30.60
2018,07,04,09,15,29.00
2018,07,04,09,16,27.40
2018,07,04,09,17,27.40
2018,07,04,09,18,30.60
2018,07,04,09,19,27.40
2018,07,04,09,20,27.40
2018,07,04,09,21,29.00
2018,07,04,09,22,32.20
2018,07,04,09,23,27.40
2018,07,04,09,24,32.20
2018,07,04,09,25,27.40
2018,07,04,09,26,27.40
2018,07,04,09,27,29.00
2018,07,04,09,28,27.40
2018,07,04,09,29,29.00
2018,07,04,09,30,29.00
2018,07,04,09,31,29.00
2018,07,04,09,32,27.40
2018,07,04,09,33,30.60
2018,07,04,09,34,30.60
2018,07,04,09,35,33.80
2018,07,04,09,36,29.00
2018,07,04,09,37,32.20
2018,07,04,09,38,33.80
2018,07,04,09,39,32.20
2018,07,04,09,40,33.80
2018,07,04,09,41,32.20
2018,07,04,09,42,32.20
2018,07,04,09,43,29.00
2018,07,04,09,44,32.20
2018,07,04,09,45,29.00
2018,07,04,09,46,29.00
2018,07,04,09,47,32.20
2018,07,04,09,48,32.20
2018,07,04,09,49,32.20
2018,07,04,09,50,30.60
2018,07,04,09,51,32.20
2018,07,04,09,52,32.20
2018,07,04,09,53,30.60
2018,07,04,09,54,35.40
2018,07,04,09,55,32.20
2018,07,04,09,56,37.00
2018,07,04,09,57,33.80
2018,07,04,09,58,35.40
2018,07,04,09,59,33.80
2018,07,04,10,00,33.80
2018,07,04,10,01,33.80
2018,07,04,10,02,33.80
2018,07,04,10,03,35.40
2018,07,04,10,04,35.40
2018,07,04,10,05,35.40
2018,07,04,10,06,37.00
2018,07,04,10,07,33.80
2018,07,04,10,08,33.80
2018,07,04,10,09,35.40
2018,07,04,10,10,33.80
2018,07,04,10,11,30.60
2018,07,04,10,12,32.20
2018,07,04,10,13,32.20
2018,07,04,10,14,35.40
2018,07,04,10,15,35.40
2018,07,04,10,16,33.80
2018,07,04,10,17,38.60
2018,07,04,10,18,38.60
2018,07,04,10,19,35.40
2018,07,04,10,20,35.40
2018,07,04,10,21,35.40
2018,07,04,10,22,35.40
2018,07,04,10,23,32.20
2018,07,04,10,24,33.80
2018,07,04,10,25,33.80
2018,07,04,10,26,33.80
2018,07,04,10,27,33.80
2018,07,04,10,28,33.80
2018,07,04,10,29,32.20
2018,07,04,10,30,32.20
2018,07,04,10,31,30.60
2018,07,04,10,32,33.80
2018,07,04,10,33,32.20
2018,07,04,10,34,32.20
2018,07,04,10,35,30.60
2018,07,04,10,36,32.20
2018,07,04,10,37,33.80
2018,07,04,10,38,32.20
2018,07,04,10,39,33.80
2018,07,04,10,40,32.20
2018,07,04,10,41,33.80
2018,07,04,10,42,33.80
2018,07,04,10,43,33.80
2018,07,04,10,44,32.20
2018,07,04,10,45,33.80
2018,07,04,10,46,30.60
2018,07,04,10,47,32.20
2018,07,04,10,48,33.80
2018,07,04,10,49,32.20
2018,07,04,10,50,32.20
2018,07,04,10,51,30.60
2018,07,04,10,52,30.60
2018,07,04,10,53,32.20
2018,07,04,10,54,32.20
2018,07,04,10,55,33.80
2018,07,04,10,56,32.20
2018,07,04,10,57,33.80
2018,07,04,10,58,32.20
2018,07,04,10,59,33.80
2018,07,04,11,00,33.80
2018,07,04,11,01,30.60
2018,07,04,11,02,33.80
2018,07,04,11,03,32.20
2018,07,04,11,04,33.80
2018,07,04,11,05,30.60
2018,07,04,11,06,32.20
2018,07,04,11,07,32.20
2018,07,04,11,08,30.60
2018,07,04,11,09,29.00
2018,07,04,11,10,29.00
2018,07,04,11,11,30.60
2018,07,04,11,12,27.40
2018,07,04,11,13,27.40
2018,07,04,11,14,25.70
2018,07,04,11,15,29.00
2018,07,04,11,16,30.60
2018,07,04,11,17,29.00
2018,07,04,11,18,27.40
2018,07,04,11,19,27.40
2018,07,04,11,20,29.00
2018,07,04,11,21,27.40
2018,07,04,11,22,29.00
2018,07,04,11,23,29.00
2018,07,04,11,24,29.00
2018,07,04,11,25,27.40
2018,07,04,11,26,29.00
2018,07,04,11,27,29.00
2018,07,04,11,28,29.00
2018,07,04,11,29,29.00
2018,07,04,11,30,30.60
2018,07,04,11,31,30.60
2018,07,04,11,32,30.60
2018,07,04,11,33,32.20
2018,07,04,11,34,33.80
2018,07,04,11,35,30.60
2018,07,04,11,36,33.80
2018,07,04,11,37,30.60
2018,07,04,11,38,30.60
2018,07,04,11,39,29.00
2018,07,04,11,40,29.00
2018,07,04,11,41,27.40
2018,07,04,11,42,30.60
2018,07,04,11,43,29.00
2018,07,04,11,44,29.00
2018,07,04,11,45,25.70
2018,07,04,11,46,27.40
2018,07,04,11,47,27.40
2018,07,04,11,48,27.40
2018,07,04,11,49,29.00
2018,07,04,11,50,29.00
2018,07,04,11,51,25.70
2018,07,04,11,52,27.40
2018,07,04,11,53,27.40
2018,07,04,11,54,24.20
2018,07,04,11,55,25.70
2018,07,04,11,56,25.70
2018,07,04,11,57,33.80
2018,07,04,11,58,33.80
2018,07,04,11,59,30.60
2018,07,04,12,00,30.60
2018,07,04,12,01,32.20
2018,07,04,12,02,32.20
2018,07,04,12,03,30.60
2018,07,04,12,04,29.00
2018,07,04,12,05,29.00
2018,07,04,12,06,32.20
2018,07,04,12,07,32.20
2018,07,04,12,08,29.00
2018,07,04,12,09,29.00
2018,07,04,12,10,29.00
2018,07,04,12,11,30.60
2018,07,04,12,12,32.20
2018,07,04,12,13,25.70
2018,07,04,12,14,30.60
2018,07,04,12,15,32.20
2018,07,04,12,16,32.20
2018,07,04,12,17,29.00
2018,07,04,12,18,33.80
2018,07,04,12,19,33.80
2018,07,04,12,20,30.60
2018,07,04,12,21,32.20
2018,07,04,12,22,30.60
2018,07,04,12,23,29.00
2018,07,04,12,24,30.60
2018,07,04,12,25,32.20
2018,07,04,12,26,32.20
2018,07,04,12,27,32.20
2018,07,04,12,28,30.60
2018,07,04,12,29,32.20
2018,07,04,12,30,32.20
2018,07,04,12,31,32.20
2018,07,04,12,32,29.00
2018,07,04,12,33,30.60
2018,07,04,12,34,29.00
2018,07,04,12,35,25.70
2018,07,04,12,36,27.40
2018,07,04,12,37,27.40
2018,07,04,12,38,30.60
2018,07,04,12,39,30.60
2018,07,04,12,40,27.40
2018,07,04,12,41,30.60
2018,07,04,12,42,29.00
2018,07,04,12,43,30.60
2018,07,04,12,44,30.60
2018,07,04,12,45,32.20
2018,07,04,12,46,33.80
2018,07,04,12,47,30.60
2018,07,04,12,48,29.00
2018,07,04,12,49,29.00
2018,07,04,12,50,29.00
2018,07,04,12,51,27.40
2018,07,04,12,52,25.70
2018,07,04,12,53,27.40
2018,07,04,12,54,27.40
2018,07,04,12,55,25.70
2018,07,04,12,56,27.40
2018,07,04,12,57,29.00
2018,07,04,12,58,25.70
2018,07,04,12,59,25.70
2018,07,04,13,00,24.20
2018,07,04,13,01,29.00
2018,07,04,13,02,29.00
2018,07,04,13,03,30.60
2018,07,04,13,04,27.40
2018,07,04,13,05,27.40
2018,07,04,13,06,27.40
2018,07,04,13,07,24.20
2018,07,04,13,08,29.00
2018,07,04,13,09,24.20
2018,07,04,13,10,25.70
2018,07,04,13,11,25.70
2018,07,04,13,12,27.40
2018,07,04,13,13,27.40
2018,07,04,13,14,24.20
2018,07,04,13,15,27.40
2018,07,04,13,16,29.00
2018,07,04,13,17,30.60
2018,07,04,13,18,25.70
2018,07,04,13,19,24.20
2018,07,04,13,20,25.70
2018,07,04,13,21,25.70
2018,07,04,13,22,25.70
2018,07,04,13,23,22.50
2018,07,04,13,24,24.20
2018,07,04,13,25,24.20
2018,07,04,13,26,24.20
2018,07,04,13,27,24.20
2018,07,04,13,28,25.70
2018,07,04,13,29,22.50
2018,07,04,13,30,22.50
2018,07,04,13,31,22.50
2018,07,04,13,32,22.50
2018,07,04,13,33,24.20
2018,07,04,13,34,24.20
2018,07,04,13,35,25.70
2018,07,04,13,36,27.40
2018,07,04,13,37,25.70
2018,07,04,13,38,25.70
2018,07,04,13,39,25.70
2018,07,04,13,40,24.20
2018,07,04,13,41,24.20
2018,07,04,13,42,27.40
2018,07,04,13,43,25.70
2018,07,04,13,44,27.40
2018,07,04,13,45,27.40
2018,07,04,13,46,27.40
2018,07,04,13,47,27.40
2018,07,04,13,48,25.70
2018,07,04,13,49,25.70
2018,07,04,13,50,29.00
2018,07,04,13,51,25.70
2018,07,04,13,52,25.70
2018,07,04,13,53,25.70
2018,07,04,13,54,27.40
2018,07,04,13,55,22.50
2018,07,04,13,56,22.50
2018,07,04,13,57,22.50
2018,07,04,13,58,24.20
2018,07,04,13,59,24.20
2018,07,04,14,00,20.90
2018,07,04,14,01,24.20
2018,07,04,14,02,25.70
2018,07,04,14,03,25.70
2018,07,04,14,04,24.20
2018,07,04,14,05,25.70
2018,07,04,14,06,25.70
2018,07,04,14,07,24.20
2018,07,04,14,08,27.40
2018,07,04,14,09,27.40
2018,07,04,14,10,27.40
2018,07,04,14,11,27.40
2018,07,04,14,12,29.00
2018,07,04,14,13,25.70
2018,07,04,14,14,25.70
2018,07,04,14,15,27.40
2018,07,04,14,16,25.70
2018,07,04,14,17,25.70
2018,07,04,14,18,25.70
2018,07,04,14,19,25.70
2018,07,04,14,20,25.70
2018,07,04,14,21,27.40
2018,07,04,14,22,27.40
2018,07,04,14,23,27.40
2018,07,04,14,24,27.40
2018,07,04,14,25,29.00
2018,07,04,14,26,29.00
2018,07,04,14,27,29.00
2018,07,04,14,28,27.40
2018,07,04,14,29,27.40
2018,07,04,14,30,27.40
2018,07,04,14,31,27.40
2018,07,04,14,32,27.40
2018,07,04,14,33,27.40
2018,07,04,14,34,27.40
2018,07,04,14,35,29.00
2018,07,04,14,36,27.40
2018,07,04,14,37,25.70
2018,07,04,14,38,27.40
2018,07,04,14,39,29.00
2018,07,04,14,40,27.40
2018,07,04,14,41,29.00
2018,07,04,14,42,29.00
2018,07,04,14,43,27.40
2018,07,04,14,44,27.40
2018,07,04,14,45,25.70
2018,07,04,14,46,25.70
2018,07,04,14,47,29.00
2018,07,04,14,48,25.70
2018,07,04,14,49,25.70
2018,07,04,14,50,24.20
2018,07,04,14,51,25.70
2018,07,04,14,52,27.40
2018,07,04,14,53,27.40
2018,07,04,14,54,27.40
2018,07,04,14,55,29.00
2018,07,04,14,56,29.00
2018,07,04,14,57,25.70
2018,07,04,14,58,27.40
2018,07,04,14,59,27.40
2018,07,04,15,00,29.00
2018,07,04,15,01,27.40
2018,07,04,15,02,25.70
2018,07,04,15,03,25.70
2018,07,04,15,04,29.00
2018,07,04,15,05,27.40
2018,07,04,15,06,27.40
2018,07,04,15,07,24.20
2018,07,04,15,08,24.20
2018,07,04,15,09,24.20
2018,07,04,15,10,24.20
2018,07,04,15,11,22.50
2018,07,04,15,12,22.50
2018,07,04,15,13,19.30
2018,07,04,15,14,20.90
2018,07,04,15,15,20.90
2018,07,04,15,16,22.50
2018,07,04,15,17,22.50
2018,07,04,15,18,22.50
2018,07,04,15,19,19.30
2018,07,04,15,20,20.90
2018,07,04,15,21,20.90
2018,07,04,15,22,20.90
2018,07,04,15,23,20.90
2018,07,04,15,24,22.50
2018,07,04,15,25,22.50
2018,07,04,15,26,24.20
2018,07,04,15,27,20.90
2018,07,04,15,28,22.50
2018,07,04,15,29,20.90
2018,07,04,15,30,22.50
2018,07,04,15,31,20.90
2018,07,04,15,32,22.50
2018,07,04,15,33,19.30
2018,07,04,15,34,20.90
2018,07,04,15,35,22.50
2018,07,04,15,36,20.90
2018,07,04,15,37,20.90
2018,07,04,15,38,22.50
2018,07,04,15,39,22.50
2018,07,04,15,40,22.50
2018,07,04,15,41,24.20
2018,07,04,15,42,22.50
2018,07,04,15,43,22.50
2018,07,04,15,44,22.50
2018,07,04,15,45,20.90
2018,07,04,15,46,22.50
2018,07,04,15,47,20.90
2018,07,04,15,48,20.90
2018,07,04,15,49,20.90
2018,07,04,15,50,19.30
2018,07,04,15,51,19.30
2018,07,04,15,52,17.70
2018,07,04,15,53,17.70
2018,07,04,15,54,16.10
2018,07,04,15,55,16.10
2018,07,04,15,56,14.50
2018,07,04,15,57,16.10
2018,07,04,15,58,14.50
2018,07,04,15,59,14.50
2018,07,04,16,00,14.50
2018,07,04,16,01,12.90
2018,07,04,16,02,14.50
2018,07,04,16,03,16.10
2018,07,04,16,04,12.90
2018,07,04,16,05,12.90
2018,07,04,16,06,14.50
2018,07,04,16,07,12.90
2018,07,04,16,08,12.90
2018,07,04,16,09,12.90
2018,07,04,16,10,11.30
2018,07,04,16,11,12.90
2018,07,04,16,12,11.30
2018,07,04,16,13,12.90
2018,07,04,16,14,11.30
2018,07,04,16,15,12.90
2018,07,04,16,16,14.50
2018,07,04,16,17,12.90
2018,07,04,16,18,12.90
2018,07,04,16,19,12.90
2018,07,04,16,20,12.90
2018,07,04,16,21,12.90
2018,07,04,16,22,11.30
2018,07,04,16,23,11.30
2018,07,04,16,24,9.60
2018,07,04,16,25,9.60
2018,07,04,16,26,9.60
2018,07,04,16,27,4.80
2018,07,04,16,28,6.40
2018,07,04,16,29,6.40
2018,07,04,16,30,9.60
2018,07,04,16,31,9.60
2018,07,04,16,32,12.90
2018,07,04,16,33,12.90
2018,07,04,16,34,12.90
2018,07,04,16,35,16.10
2018,07,04,16,36,16.10
2018,07,04,16,37,17.70
2018,07,04,16,38,17.70
2018,07,04,16,39,17.70
2018,07,04,16,40,16.10
2018,07,04,16,41,17.70
2018,07,04,16,42,16.10
2018,07,04,16,43,16.10
2018,07,04,16,44,16.10
2018,07,04,16,45,16.10
2018,07,04,16,46,16.10
2018,07,04,16,47,17.70
2018,07,04,16,48,17.70
2018,07,04,16,49,16.10
2018,07,04,16,50,16.10
2018,07,04,16,51,16.10
2018,07,04,16,52,14.50
2018,07,04,16,53,14.50
2018,07,04,16,54,12.90
2018,07,04,16,55,11.30
2018,07,04,16,56,9.60
2018,07,04,16,57,8.10
2018,07,04,16,58,8.10
2018,07,04,16,59,6.40
2018,07,04,17,00,8.10
2018,07,04,17,01,11.30
2018,07,04,17,02,9.60
2018,07,04,17,03,9.60
2018,07,04,17,04,8.10
2018,07,04,17,05,9.60
2018,07,04,17,06,9.60
2018,07,04,17,07,8.10
2018,07,04,17,08,6.40
2018,07,04,17,09,6.40
2018,07,04,17,10,6.40
2018,07,04,17,11,8.10
2018,07,04,17,12,8.10
2018,07,04,17,13,8.10
2018,07,04,17,14,6.40
2018,07,04,17,15,6.40
2018,07,04,17,16,6.40
2018,07,04,17,17,6.40
2018,07,04,17,18,6.40
2018,07,04,17,19,4.80
2018,07,04,17,20,4.80
2018,07,04,17,21,3.20
2018,07,04,17,22,8.10
2018,07,04,17,23,12.90
2018,07,04,17,24,12.90
2018,07,04,17,25,11.30
2018,07,04,17,26,8.10
2018,07,04,17,27,6.40
2018,07,04,17,28,6.40
2018,07,04,17,29,6.40
2018,07,04,17,30,1.60
2018,07,04,17,31,1.60
2018,07,04,17,32,3.20
2018,07,04,17,33,3.20
2018,07,04,17,34,1.60
2018,07,04,17,35,4.80
2018,07,04,17,36,4.80
2018,07,04,17,37,4.80
2018,07,04,17,38,3.20
2018,07,04,17,39,4.80
2018,07,04,17,40,4.80
2018,07,04,17,41,3.20
2018,07,04,17,42,3.20
2018,07,04,17,43,4.80
2018,07,04,17,44,4.80
2018,07,04,17,45,3.20
2018,07,04,17,46,1.60
2018,07,04,17,47,4.80
2018,07,04,17,48,4.80
2018,07,04,17,49,4.80
2018,07,04,17,50,4.80
2018,07,04,17,51,6.40
2018,07,04,17,52,6.40
2018,07,04,17,53,6.40
2018,07,04,17,54,6.40